Time,TemperatureF,DewpointF,PressureIn,WindDirection,WindDirectionDegrees,WindSpeedMPH,WindSpeedGustMPH,Humidity,HourlyPrecipIn,Conditions,Clouds,dailyrainin,SoftwareType,DateUTC
2013-04-03 00:03:00,21.0,11.0,30.23,West,279,8.0,-999.0,64,-99.99,,,-99.99,,2013-04-03 04:03:00,
2013-04-03 00:13:00,21.0,11.0,30.23,West,279,8.0,-999.0,64,-99.99,,,-99.99,,2013-04-03 04:13:00,
2013-04-03 00:23:00,21.0,11.0,30.23,West,279,8.0,-999.0,64,-99.99,,,-99.99,,2013-04-03 04:23:00,
2013-04-03 00:33:00,20.0,11.0,30.23,NW,323,5.0,-999.0,66,-99.99,,,-99.99,,2013-04-03 04:33:00,
2013-04-03 00:43:00,20.0,11.0,30.23,NW,323,5.0,-999.0,66,-99.99,,,-99.99,,2013-04-03 04:43:00,
2013-04-03 00:53:00,20.0,11.0,30.24,NW,317,6.0,-999.0,67,-99.99,,,-99.99,,2013-04-03 04:53:00,
2013-04-03 01:02:00,20.0,11.0,30.23,West,261,5.0,-999.0,68,-99.99,,,-99.99,,2013-04-03 05:02:00,
2013-04-03 01:12:00,20.0,11.0,30.23,West,261,5.0,-999.0,68,-99.99,,,-99.99,,2013-04-03 05:12:00,
2013-04-03 01:22:00,20.0,11.0,30.24,North,355,6.0,-999.0,69,-99.99,,,-99.99,,2013-04-03 05:22:00,
2013-04-03 01:32:00,19.0,11.0,30.23,WNW,292,7.0,-999.0,70,-99.99,,,-99.99,,2013-04-03 05:32:00,
2013-04-03 01:42:00,19.0,11.0,30.23,WNW,292,7.0,-999.0,70,-99.99,,,-99.99,,2013-04-03 05:42:00,
2013-04-03 01:53:00,19.0,11.0,30.24,WSW,251,6.0,-999.0,71,-99.99,,,-99.99,,2013-04-03 05:53:00,
2013-04-03 02:02:00,19.0,11.0,30.24,WNW,293,6.0,-999.0,71,-99.99,,,-99.99,,2013-04-03 06:02:00,
2013-04-03 02:12:00,19.0,11.0,30.24,WNW,293,6.0,-999.0,71,-99.99,,,-99.99,,2013-04-03 06:12:00,
2013-04-03 02:22:00,19.0,11.0,30.24,WNW,299,5.0,-999.0,72,-99.99,,,-99.99,,2013-04-03 06:22:00,
2013-04-03 02:32:00,18.0,11.0,30.24,NNW,327,5.0,-999.0,73,-99.99,,,-99.99,,2013-04-03 06:32:00,
2013-04-03 02:42:00,18.0,11.0,30.24,NNW,327,5.0,-999.0,73,-99.99,,,-99.99,,2013-04-03 06:42:00,
2013-04-03 02:52:00,18.0,11.0,30.24,West,259,3.0,-999.0,74,-99.99,,,-99.99,,2013-04-03 06:52:00,
2013-04-03 03:02:00,17.0,11.0,30.24,North,355,5.0,-999.0,76,-99.99,,,-99.99,,2013-04-03 07:02:00,
2013-04-03 03:12:00,17.0,11.0,30.24,North,355,5.0,-999.0,76,-99.99,,,-99.99,,2013-04-03 07:12:00,
2013-04-03 03:23:00,17.0,11.0,30.25,WNW,300,5.0,-999.0,76,-99.99,,,-99.99,,2013-04-03 07:23:00,
2013-04-03 03:33:00,17.0,11.0,30.25,West,265,4.0,-999.0,77,-99.99,,,-99.99,,2013-04-03 07:33:00,
2013-04-03 03:42:00,17.0,11.0,30.25,West,265,4.0,-999.0,77,-99.99,,,-99.99,,2013-04-03 07:42:00,
2013-04-03 03:53:00,17.0,11.0,30.25,WSW,243,4.0,-999.0,78,-99.99,,,-99.99,,2013-04-03 07:53:00,
2013-04-03 04:03:00,17.0,12.0,30.25,WSW,254,7.0,-999.0,79,-99.99,,,-99.99,,2013-04-03 08:03:00,
2013-04-03 04:12:00,17.0,12.0,30.25,WSW,254,7.0,-999.0,79,-99.99,,,-99.99,,2013-04-03 08:12:00,
2013-04-03 04:22:00,17.0,12.0,30.25,WNW,282,7.0,-999.0,79,-99.99,,,-99.99,,2013-04-03 08:22:00,
2013-04-03 04:32:00,17.0,11.0,30.25,West,259,7.0,-999.0,78,-99.99,,,-99.99,,2013-04-03 08:32:00,
2013-04-03 04:42:00,17.0,11.0,30.25,West,259,7.0,-999.0,78,-99.99,,,-99.99,,2013-04-03 08:42:00,
2013-04-03 04:52:00,16.0,10.0,30.25,WSW,244,7.0,-999.0,78,-99.99,,,-99.99,,2013-04-03 08:52:00,
2013-04-03 05:02:00,16.0,10.0,30.25,West,265,7.0,-999.0,77,-99.99,,,-99.99,,2013-04-03 09:02:00,
2013-04-03 05:12:00,16.0,10.0,30.25,West,265,7.0,-999.0,77,-99.99,,,-99.99,,2013-04-03 09:12:00,
2013-04-03 05:22:00,16.0,10.0,30.25,WNW,285,8.0,-999.0,76,-99.99,,,-99.99,,2013-04-03 09:22:00,
2013-04-03 05:33:00,16.0,10.0,30.25,West,271,6.0,-999.0,76,-99.99,,,-99.99,,2013-04-03 09:33:00,
2013-04-03 05:43:00,16.0,10.0,30.25,West,271,6.0,-999.0,76,-99.99,,,-99.99,,2013-04-03 09:43:00,
2013-04-03 05:53:00,16.0,10.0,30.26,SW,232,7.0,-999.0,76,-99.99,,,-99.99,,2013-04-03 09:53:00,
2013-04-03 06:03:00,16.0,10.0,30.26,WSW,257,7.0,-999.0,77,-99.99,,,-99.99,,2013-04-03 10:03:00,
2013-04-03 06:12:00,16.0,10.0,30.26,WSW,257,7.0,-999.0,77,-99.99,,,-99.99,,2013-04-03 10:12:00,
2013-04-03 06:22:00,16.0,10.0,30.27,West,261,7.0,-999.0,77,-99.99,,,-99.99,,2013-04-03 10:22:00,
2013-04-03 06:33:00,16.0,10.0,30.27,West,275,7.0,-999.0,78,-99.99,,,-99.99,,2013-04-03 10:33:00,
2013-04-03 06:43:00,16.0,10.0,30.27,West,275,7.0,-999.0,78,-99.99,,,-99.99,,2013-04-03 10:43:00,
2013-04-03 06:53:00,16.0,11.0,30.27,WSW,246,6.0,-999.0,79,-99.99,,,-99.99,,2013-04-03 10:53:00,
2013-04-03 07:02:00,16.0,11.0,30.27,WSW,252,8.0,-999.0,79,-99.99,,,-99.99,,2013-04-03 11:02:00,
2013-04-03 07:12:00,16.0,11.0,30.27,WSW,252,8.0,-999.0,79,-99.99,,,-99.99,,2013-04-03 11:12:00,
2013-04-03 07:23:00,16.0,11.0,30.27,WSW,252,8.0,-999.0,79,-99.99,,,-99.99,,2013-04-03 11:23:00,
2013-04-03 07:32:00,16.0,11.0,30.26,WNW,296,8.0,-999.0,80,-99.99,,,-99.99,,2013-04-03 11:32:00,
2013-04-03 07:42:00,16.0,11.0,30.26,WNW,296,8.0,-999.0,80,-99.99,,,-99.99,,2013-04-03 11:42:00,
2013-04-03 07:53:00,16.0,11.0,30.26,West,263,8.0,-999.0,80,-99.99,,,-99.99,,2013-04-03 11:53:00,
2013-04-03 08:02:00,16.0,11.0,30.26,WNW,295,8.0,-999.0,80,-99.99,,,-99.99,,2013-04-03 12:02:00,
2013-04-03 08:13:00,16.0,11.0,30.26,WNW,295,8.0,-999.0,80,-99.99,,,-99.99,,2013-04-03 12:13:00,
2013-04-03 08:22:00,16.0,11.0,30.28,West,271,8.0,-999.0,80,-99.99,,,-99.99,,2013-04-03 12:22:00,
2013-04-03 08:33:00,17.0,12.0,30.28,NW,309,5.0,-999.0,79,-99.99,,,-99.99,,2013-04-03 12:33:00,
2013-04-03 08:42:00,17.0,12.0,30.28,NW,309,5.0,-999.0,79,-99.99,,,-99.99,,2013-04-03 12:42:00,
2013-04-03 08:52:00,17.0,11.0,30.29,WSW,248,7.0,-999.0,76,-99.99,,,-99.99,,2013-04-03 12:52:00,
2013-04-03 09:02:00,18.0,11.0,30.30,WSW,240,7.0,-999.0,75,-99.99,,,-99.99,,2013-04-03 13:02:00,
2013-04-03 09:12:00,18.0,11.0,30.30,WSW,240,7.0,-999.0,75,-99.99,,,-99.99,,2013-04-03 13:12:00,
2013-04-03 09:22:00,19.0,10.0,30.30,SW,221,7.0,-999.0,68,-99.99,,,-99.99,,2013-04-03 13:22:00,
2013-04-03 09:32:00,20.0,10.0,30.32,SW,232,7.0,-999.0,65,-99.99,,,-99.99,,2013-04-03 13:32:00,
2013-04-03 09:42:00,20.0,10.0,30.32,SW,232,7.0,-999.0,65,-99.99,,,-99.99,,2013-04-03 13:42:00,
2013-04-03 09:52:00,22.0,9.0,30.32,WSW,254,7.0,-999.0,57,-99.99,,,-99.99,,2013-04-03 13:52:00,
2013-04-03 10:02:00,22.0,8.0,30.34,WSW,244,11.0,-999.0,55,-99.99,,,-99.99,,2013-04-03 14:02:00,
2013-04-03 10:13:00,22.0,8.0,30.34,WSW,244,11.0,-999.0,55,-99.99,,,-99.99,,2013-04-03 14:13:00,
2013-04-03 10:22:00,22.0,8.0,30.32,WSW,239,10.0,-999.0,55,-99.99,,,-99.99,,2013-04-03 14:22:00,
2013-04-03 10:32:00,23.0,9.0,30.32,West,273,10.0,-999.0,55,-99.99,,,-99.99,,2013-04-03 14:32:00,
2013-04-03 10:42:00,23.0,9.0,30.32,West,273,10.0,-999.0,55,-99.99,,,-99.99,,2013-04-03 14:42:00,
2013-04-03 10:52:00,23.0,8.0,30.33,WSW,238,11.0,-999.0,53,-99.99,,,-99.99,,2013-04-03 14:52:00,
2013-04-03 11:02:00,24.0,10.0,30.34,West,277,11.0,-999.0,55,-99.99,,,-99.99,,2013-04-03 15:02:00,
2013-04-03 11:12:00,24.0,10.0,30.34,West,277,11.0,-999.0,55,-99.99,,,-99.99,,2013-04-03 15:12:00,
2013-04-03 11:23:00,25.0,10.0,30.34,SSW,205,11.0,-999.0,53,-99.99,,,-99.99,,2013-04-03 15:23:00,
2013-04-03 11:33:00,26.0,10.0,30.34,SW,236,10.0,-999.0,51,-99.99,,,-99.99,,2013-04-03 15:33:00,
2013-04-03 11:43:00,26.0,10.0,30.34,SW,236,10.0,-999.0,51,-99.99,,,-99.99,,2013-04-03 15:43:00,
2013-04-03 11:53:00,26.0,10.0,30.35,SW,235,10.0,-999.0,50,-99.99,,,-99.99,,2013-04-03 15:53:00,
2013-04-03 12:03:00,26.0,10.0,30.34,SSW,211,12.0,-999.0,51,-99.99,,,-99.99,,2013-04-03 16:03:00,
2013-04-03 12:13:00,26.0,10.0,30.34,SSW,211,12.0,-999.0,51,-99.99,,,-99.99,,2013-04-03 16:13:00,
2013-04-03 12:24:00,27.0,10.0,30.34,SW,236,11.0,-999.0,49,-99.99,,,-99.99,,2013-04-03 16:24:00,
2013-04-03 12:33:00,27.0,9.0,30.33,SW,216,13.0,-999.0,47,-99.99,,,-99.99,,2013-04-03 16:33:00,
2013-04-03 12:43:00,27.0,9.0,30.33,SW,216,13.0,-999.0,47,-99.99,,,-99.99,,2013-04-03 16:43:00,
2013-04-03 12:53:00,28.0,10.0,30.33,WNW,298,12.0,-999.0,46,-99.99,,,-99.99,,2013-04-03 16:53:00,
2013-04-03 13:03:00,28.0,10.0,30.33,West,280,11.0,-999.0,46,-99.99,,,-99.99,,2013-04-03 17:03:00,
2013-04-03 13:14:00,28.0,10.0,30.33,West,280,11.0,-999.0,46,-99.99,,,-99.99,,2013-04-03 17:14:00,
2013-04-03 13:23:00,29.0,10.0,30.33,West,271,11.0,-999.0,45,-99.99,,,-99.99,,2013-04-03 17:23:00,
2013-04-03 13:33:00,29.0,10.0,30.32,SW,236,11.0,-999.0,45,-99.99,,,-99.99,,2013-04-03 17:33:00,
2013-04-03 13:46:00,29.0,10.0,30.32,SW,236,11.0,-999.0,45,-99.99,,,-99.99,,2013-04-03 17:46:00,
2013-04-03 13:54:00,29.0,9.0,30.32,NW,307,14.0,-999.0,42,-99.99,,,-99.99,,2013-04-03 17:54:00,
2013-04-03 14:02:00,30.0,10.0,30.32,WSW,240,13.0,-999.0,43,-99.99,,,-99.99,,2013-04-03 18:02:00,
2013-04-03 14:13:00,30.0,10.0,30.32,WSW,240,13.0,-999.0,43,-99.99,,,-99.99,,2013-04-03 18:13:00,
2013-04-03 14:23:00,30.0,10.0,30.31,WSW,250,13.0,-999.0,42,-99.99,,,-99.99,,2013-04-03 18:23:00,
2013-04-03 14:33:00,31.0,11.0,30.31,SSW,211,9.0,-999.0,42,-99.99,,,-99.99,,2013-04-03 18:33:00,
2013-04-03 14:43:00,31.0,11.0,30.31,SSW,211,9.0,-999.0,42,-99.99,,,-99.99,,2013-04-03 18:43:00,
2013-04-03 14:52:00,31.0,11.0,30.31,SSW,211,9.0,-999.0,42,-99.99,,,-99.99,,2013-04-03 18:52:00,
2013-04-03 15:03:00,32.0,12.0,30.31,WSW,243,11.0,-999.0,43,-99.99,,,-99.99,,2013-04-03 19:03:00,
2013-04-03 15:12:00,32.0,12.0,30.31,WSW,243,11.0,-999.0,43,-99.99,,,-99.99,,2013-04-03 19:12:00,
2013-04-03 15:22:00,32.0,11.0,30.32,WSW,250,13.0,-999.0,41,-99.99,,,-99.99,,2013-04-03 19:22:00,
2013-04-03 15:32:00,32.0,11.0,30.32,WSW,250,13.0,-999.0,41,-99.99,,,-99.99,,2013-04-03 19:32:00,
2013-04-03 15:42:00,32.0,11.0,30.32,WSW,250,13.0,-999.0,41,-99.99,,,-99.99,,2013-04-03 19:42:00,
2013-04-03 15:52:00,32.0,10.0,30.33,WSW,252,12.0,-999.0,40,-99.99,,,-99.99,,2013-04-03 19:52:00,
2013-04-03 16:02:00,32.0,10.0,30.32,West,260,14.0,-999.0,39,-99.99,,,-99.99,,2013-04-03 20:02:00,
2013-04-03 16:13:00,32.0,10.0,30.32,West,260,14.0,-999.0,39,-99.99,,,-99.99,,2013-04-03 20:13:00,
2013-04-03 16:23:00,32.0,10.0,30.33,WSW,250,13.0,-999.0,40,-99.99,,,-99.99,,2013-04-03 20:23:00,
2013-04-03 16:33:00,32.0,9.0,30.33,WSW,250,12.0,-999.0,37,-99.99,,,-99.99,,2013-04-03 20:33:00,
2013-04-03 16:42:00,32.0,9.0,30.33,WSW,250,12.0,-999.0,37,-99.99,,,-99.99,,2013-04-03 20:42:00,
2013-04-03 16:53:00,33.0,9.0,30.35,NW,304,10.0,-999.0,36,-99.99,,,-99.99,,2013-04-03 20:53:00,
2013-04-03 17:02:00,32.0,8.0,30.35,SW,225,13.0,-999.0,36,-99.99,,,-99.99,,2013-04-03 21:02:00,
2013-04-03 17:12:00,32.0,8.0,30.35,SW,225,13.0,-999.0,36,-99.99,,,-99.99,,2013-04-03 21:12:00,
2013-04-03 17:22:00,32.0,9.0,30.35,West,277,13.0,-999.0,37,-99.99,,,-99.99,,2013-04-03 21:22:00,
2013-04-03 17:33:00,32.0,8.0,30.35,WSW,249,12.0,-999.0,36,-99.99,,,-99.99,,2013-04-03 21:33:00,
2013-04-03 17:42:00,32.0,8.0,30.35,WSW,249,12.0,-999.0,36,-99.99,,,-99.99,,2013-04-03 21:42:00,
2013-04-03 17:52:00,31.0,8.0,30.35,WSW,257,12.0,-999.0,37,-99.99,,,-99.99,,2013-04-03 21:52:00,
2013-04-03 18:02:00,31.0,6.0,30.36,West,267,13.0,-999.0,34,-99.99,,,-99.99,,2013-04-03 22:02:00,
2013-04-03 18:13:00,31.0,6.0,30.36,West,267,13.0,-999.0,34,-99.99,,,-99.99,,2013-04-03 22:13:00,
2013-04-03 18:22:00,31.0,7.0,30.37,SW,231,9.0,-999.0,36,-99.99,,,-99.99,,2013-04-03 22:22:00,
2013-04-03 18:33:00,30.0,6.0,30.36,SW,229,12.0,-999.0,36,-99.99,,,-99.99,,2013-04-03 22:33:00,
2013-04-03 18:42:00,30.0,6.0,30.36,SW,229,12.0,-999.0,36,-99.99,,,-99.99,,2013-04-03 22:42:00,
2013-04-03 18:52:00,30.0,9.0,30.36,WSW,246,11.0,-999.0,40,-99.99,,,-99.99,,2013-04-03 22:52:00,
2013-04-03 19:02:00,29.0,8.0,30.37,WNW,302,9.0,-999.0,41,-99.99,,,-99.99,,2013-04-03 23:02:00,
2013-04-03 19:12:00,29.0,8.0,30.37,WNW,302,9.0,-999.0,41,-99.99,,,-99.99,,2013-04-03 23:12:00,
2013-04-03 19:22:00,28.0,8.0,30.36,West,272,10.0,-999.0,43,-99.99,,,-99.99,,2013-04-03 23:22:00,
2013-04-03 19:32:00,27.0,9.0,30.36,WNW,287,11.0,-999.0,45,-99.99,,,-99.99,,2013-04-03 23:32:00,
2013-04-03 19:43:00,27.0,9.0,30.36,WNW,287,11.0,-999.0,45,-99.99,,,-99.99,,2013-04-03 23:43:00,
2013-04-03 19:54:00,26.0,9.0,30.38,NW,318,8.0,-999.0,47,-99.99,,,-99.99,,2013-04-03 23:54:00,
2013-04-03 20:03:00,26.0,10.0,30.37,NW,317,6.0,-999.0,50,-99.99,,,-99.99,,2013-04-04 00:03:00,
2013-04-03 20:12:00,26.0,10.0,30.37,NW,317,6.0,-999.0,50,-99.99,,,-99.99,,2013-04-04 00:12:00,
2013-04-03 20:22:00,25.0,9.0,30.38,WSW,237,9.0,-999.0,50,-99.99,,,-99.99,,2013-04-04 00:22:00,
2013-04-03 20:32:00,25.0,9.0,30.38,WSW,237,9.0,-999.0,50,-99.99,,,-99.99,,2013-04-04 00:32:00,
2013-04-03 20:43:00,25.0,9.0,30.38,WSW,237,9.0,-999.0,50,-99.99,,,-99.99,,2013-04-04 00:43:00,
2013-04-03 20:52:00,24.0,9.0,30.38,West,274,4.0,-999.0,51,-99.99,,,-99.99,,2013-04-04 00:52:00,
2013-04-03 21:02:00,24.0,9.0,30.38,WNW,300,5.0,-999.0,51,-99.99,,,-99.99,,2013-04-04 01:02:00,
2013-04-03 21:12:00,24.0,9.0,30.38,WNW,300,5.0,-999.0,51,-99.99,,,-99.99,,2013-04-04 01:12:00,
2013-04-03 21:22:00,24.0,9.0,30.38,WNW,300,6.0,-999.0,51,-99.99,,,-99.99,,2013-04-04 01:22:00,
2013-04-03 21:32:00,24.0,9.0,30.38,West,267,5.0,-999.0,52,-99.99,,,-99.99,,2013-04-04 01:32:00,
2013-04-03 21:43:00,24.0,9.0,30.38,West,267,5.0,-999.0,52,-99.99,,,-99.99,,2013-04-04 01:43:00,
2013-04-03 21:52:00,23.0,8.0,30.37,NNE,21,5.0,-999.0,53,-99.99,,,-99.99,,2013-04-04 01:52:00,
2013-04-03 22:02:00,23.0,9.0,30.37,NNW,343,5.0,-999.0,54,-99.99,,,-99.99,,2013-04-04 02:02:00,
2013-04-03 22:12:00,23.0,9.0,30.37,NNW,343,5.0,-999.0,54,-99.99,,,-99.99,,2013-04-04 02:12:00,
2013-04-03 22:22:00,22.0,9.0,30.37,NNE,27,6.0,-999.0,56,-99.99,,,-99.99,,2013-04-04 02:22:00,
2013-04-03 22:32:00,22.0,9.0,30.37,WNW,302,4.0,-999.0,56,-99.99,,,-99.99,,2013-04-04 02:32:00,
2013-04-03 22:42:00,22.0,9.0,30.37,WNW,302,4.0,-999.0,56,-99.99,,,-99.99,,2013-04-04 02:42:00,
2013-04-03 22:53:00,22.0,9.0,30.37,WNW,302,4.0,-999.0,56,-99.99,,,-99.99,,2013-04-04 02:53:00,
2013-04-03 23:02:00,21.0,9.0,30.38,ENE,59,3.0,-999.0,58,-99.99,,,-99.99,,2013-04-04 03:02:00,
2013-04-03 23:12:00,21.0,9.0,30.38,ENE,59,3.0,-999.0,58,-99.99,,,-99.99,,2013-04-04 03:12:00,
2013-04-03 23:22:00,21.0,9.0,30.38,ENE,58,1.0,-999.0,59,-99.99,,,-99.99,,2013-04-04 03:22:00,
2013-04-03 23:33:00,21.0,9.0,30.39,East,90,1.0,-999.0,59,-99.99,,,-99.99,,2013-04-04 03:33:00,
2013-04-03 23:45:00,21.0,9.0,30.39,East,90,1.0,-999.0,59,-99.99,,,-99.99,,2013-04-04 03:45:00,
2013-04-03 23:53:00,20.0,8.0,30.39,SE,136,1.0,-999.0,60,-99.99,,,-99.99,,2013-04-04 03:53:00,